Hourly Data Report for October 13, 2019

All times are specified in Local Standard Time (LST). Add 1 hour to adjust for Daylight Saving Time where and when it is observed.

ABBOTSFORD A
BRITISH COLUMBIA
Current Station Operator: NAVCAN

49°01'31.000" N
122°21'36.000" W
59.10 m
1100031
71108
YXX

Download Data

Hourly Data (October 2019)
Hourly Data Report for October 13, 2019
TIME Temp Definition
°C
Dew Point Definition
°C
Rel Hum Definition
%
Wind Dir Definition
10's deg

Wind Spd Definition
km/h
Visibility Definition
km
Stn Press Definition
kPa
Hmdx Definition


Wind Chill Definition


Weather Definition


00:00 8.7 8.4 98 21 5 6.4 100.70     Fog
01:00 8.9 8.6 98 36 1 6.4 100.70     Fog
02:00 8.8 8.6 98 0 1 6.4 100.67     Fog
03:00 8.8 8.6 98 13 7 0.8 100.66     Fog
04:00 8.6 8.3 98 17 4 6.4 100.67     Fog
05:00 8.5 8.3 98 36 1 8.1 100.67     Fog
06:00 8.8 8.6 98 15 4 9.7 100.69     Fog
07:00 8.9 8.6 98 17 4 9.7 100.68     Fog
08:00 9.3 8.9 97 36 3 12.9 100.70     Rain,Fog
09:00 10.0 9.5 97 17 5 6.4 100.71     Rain,Fog
10:00 10.3 9.7 96 22 13 6.4 100.73     Rain,Fog
11:00 10.8 9.7 93 22 7 8.1 100.76     Fog
12:00 11.7 8.6 81 22 12 16.1 100.74     LegendNANA
13:00 11.5 8.0 79 20 11 16.1 100.74     Mostly Cloudy
14:00 12.4 8.9 79 21 12 16.1 100.76     LegendNANA
15:00 12.5 7.6 72 21 11 24.1 100.77     LegendNANA
16:00 11.9 6.5 69 21 12 24.1 100.79     Mostly Cloudy
17:00 11.2 7.3 77 20 10 24.1 100.79     LegendNANA
18:00 10.3 6.9 79 17 5 24.1 100.85     LegendNANA
19:00 9.3 7.0 85 19 8 24.1 100.84     Mostly Cloudy
20:00 8.2 6.9 91 36 1 24.1 100.92     LegendNANA
21:00 7.1 6.0 92 36 2 24.1 100.95     LegendNANA
22:00 6.7 6.0 95 36 2 24.1 101.00     Mostly Cloudy
23:00 7.2 6.3 94 36 2 24.1 101.03     LegendNANA

Notes on Data Quality.

Legend

  • E = Estimated
  • M = Missing
  • NA = Not Available
Date modified: